EST,Max TemperatureF,Mean TemperatureF,Min TemperatureF,Max Dew PointF,MeanDew PointF,Min DewpointF,Max Humidity, Mean Humidity, Min Humidity, Max Sea Level PressureIn, Mean Sea Level PressureIn, Min Sea Level PressureIn, Max VisibilityMiles, Mean VisibilityMiles, Min VisibilityMiles, Max Wind SpeedMPH, Mean Wind SpeedMPH, Max Gust SpeedMPH,PrecipitationIn, CloudCover, Events, WindDirDegrees
2012-12-1,27,24,20,27,18,8,99,81,58,30.63,30.57,30.50,10,6,2,4,0,,0.00,8,Snow,130
2012-12-2,34,30,27,35,31,27,100,100,98,30.49,30.22,29.98,5,2,0,4,1,,0.31,8,Fog-Rain,80
2012-12-3,48,38,27,46,34,27,100,88,66,30.31,30.13,29.96,10,7,2,14,3,23,0.00,4,,296
2012-12-4,36,31,26,36,33,26,100,100,99,30.31,30.19,29.94,10,3,0,4,0,,0.00,8,Fog-Rain,76
2012-12-5,50,40,30,47,31,16,100,75,52,30.13,29.94,29.80,10,8,0,17,6,28,0.25,7,Fog-Rain-Snow,297
2012-12-6,33,28,22,21,18,17,93,66,53,30.31,30.26,30.13,10,10,10,16,9,24,0.00,1,,282
2012-12-7,35,28,20,32,25,20,99,88,60,30.26,30.14,30.03,10,8,3,6,1,,0.00,4,Rain-Snow,86
2012-12-8,35,32,30,35,33,30,100,99,93,30.03,29.93,29.85,10,3,0,4,0,,0.01,8,Fog,75
2012-12-9,42,36,30,38,29,22,100,79,46,30.28,30.17,29.92,10,8,0,13,3,16,0.00,4,Fog,285
2012-12-10,43,38,32,43,34,28,100,97,73,30.17,29.74,29.49,10,3,1,14,4,21,0.39,8,Rain-Snow,101
2012-12-11,42,36,30,38,28,21,87,75,65,30.12,29.85,29.55,10,10,10,14,8,22,0.09,8,Rain,289
2012-12-12,38,30,21,26,21,16,99,75,41,30.39,30.29,30.13,10,10,7,12,4,16,0.00,2,,291
2012-12-13,40,29,18,28,22,18,98,86,48,30.45,30.37,30.25,10,10,7,9,1,,0.00,2,,270
2012-12-14,43,30,16,28,23,15,96,75,43,30.24,30.12,30.02,10,10,7,13,2,20,0.00,4,,298
2012-12-15,37,28,18,24,12,-4,84,52,23,30.33,30.27,30.14,10,10,10,14,7,23,0.00,1,,287
2012-12-16,24,22,20,23,15,6,94,74,48,30.33,30.24,30.14,10,6,1,8,2,,0.13,8,Snow,96
2012-12-17,33,28,23,33,28,21,99,94,86,30.14,30.01,29.88,10,4,1,7,3,,0.06,8,Snow,131
2012-12-18,39,36,33,38,36,33,100,96,87,29.86,29.56,29.44,10,6,1,12,4,20,0.44,8,Rain,149
2012-12-19,38,36,35,36,31,30,95,81,73,30.03,29.70,29.44,10,10,7,16,10,25,0.04,7,Rain,295
2012-12-20,37,35,33,30,28,27,87,76,67,30.20,30.11,30.01,10,10,10,13,6,20,0.00,7,,290
2012-12-21,50,41,32,46,35,30,99,90,71,30.00,29.41,28.99,10,5,1,14,7,28,1.11,8,Rain-Snow,119
2012-12-22,37,30,23,32,23,13,96,73,59,29.59,29.32,29.12,10,9,1,18,7,31,0.00,7,Snow,268
2012-12-23,33,26,20,23,16,11,83,65,49,29.77,29.72,29.60,10,10,7,17,9,26,0.00,3,Snow,293
2012-12-24,32,28,22,26,18,14,85,67,47,30.04,29.97,29.77,10,10,5,14,5,18,0.00,3,Snow,283
2012-12-25,31,24,16,22,18,10,96,80,63,30.24,30.08,30.00,10,8,1,14,3,24,0.02,4,Snow,291
2012-12-26,29,22,14,20,13,8,76,65,53,30.31,30.23,30.02,10,10,10,15,8,25,0.00,1,,297
2012-12-27,38,32,24,32,27,20,98,84,63,29.99,29.63,29.45,10,6,1,17,9,31,0.07,8,Snow,94
2012-12-28,28,25,22,22,20,18,88,79,72,29.99,29.87,29.66,10,10,5,21,11,29,0.01,5,Snow,302
2012-12-29,25,22,20,25,20,16,96,89,79,29.98,29.80,29.49,10,6,0,13,5,,0.14,5,Snow,303
2012-12-30,26,20,13,23,12,5,89,74,66,29.96,29.70,29.46,10,7,2,21,11,32,0.00,6,Snow,289
2012-12-31,31,22,14,24,17,6,86,73,67,29.97,29.87,29.66,10,10,7,14,8,23,0.00,8,Snow,294